Date String (YYYY-MM-DD hh:mm:ss) UTC,Instrument flags,absolute air pressure of the measurement (hPa),sample flow rate (lpm),inlet stack bypass flow (lpm),air temperature of the measurement (°C),ambient temperature measured by the external sensor (°C),aerosol sample conditioner tube jacket temperature (°C),OPC LED temperature (°C),internal box temperature (°C),relative humidity of the measurement (%),span deviation,mass concentration of particles derived from Lorenz-Mie calculation of OPC scattering (μg/m³),mass concentration of particles derived from Lorenz-Mie calculation of OPC scattering (μg/m³),mass concentration of particles derived from Lorenz-Mie calculation of OPC scattering (μg/m³)
DateTimeUTC,F1_M11,P_M11,Q1_M11,Q2_M11,T1_M11,T2_M11,T3_M11,T4_M11,T5_M11,U1_M11,ZSPAN_M11,X0_M11,X2_M11,X1_M11
2023-10-06 09:00:00,SystemResetWarning,0837.7,5.00,000.00,028.8,027.1,000.0,037.3,030.4,16.5,0000.0,0011.24,0003.42,0002.46
2023-10-06 09:01:00,SystemResetWarning,0837.7,4.99,000.00,028.8,027.2,000.0,037.3,030.4,16.5,0000.0,0010.60,0003.43,0002.46
2023-10-06 09:02:00,SystemResetWarning,0837.8,4.99,000.00,028.8,027.2,000.0,037.3,030.3,16.4,0000.0,0010.05,0003.45,0002.46
2023-10-06 09:03:00,SystemResetWarning,0837.8,5.00,000.00,028.8,027.2,000.0,037.3,030.3,16.4,0000.0,0010.03,0003.47,0002.48
2023-10-06 09:04:00,SystemResetWarning,0837.8,5.01,000.00,028.8,027.2,000.0,037.3,030.3,16.5,0000.0,0010.45,0003.46,0002.52
2023-10-06 09:05:00,SystemResetWarning,0837.8,5.01,000.00,028.8,027.2,000.0,037.3,030.4,16.4,0000.0,0010.48,0003.50,0002.55
2023-10-06 09:06:00,SystemResetWarning,0837.8,5.00,000.00,028.8,027.2,000.0,037.3,030.4,16.4,0000.0,0010.57,0003.54,0002.59
2023-10-06 09:07:00,SystemResetWarning,0837.8,4.99,000.00,028.8,027.2,000.0,037.3,030.4,16.4,0000.0,0010.89,0003.60,0002.63
2023-10-06 09:08:00,SystemResetWarning,0837.8,5.00,000.00,028.8,027.2,000.0,037.3,030.4,16.4,0000.0,0011.83,0003.65,0002.69
2023-10-06 09:09:00,SystemResetWarning,0837.9,4.99,000.00,028.8,027.2,000.0,037.3,030.4,16.4,0000.0,0011.71,0003.69,0002.76
2023-10-06 09:10:00,SystemResetWarning,0837.8,5.01,000.00,028.8,027.2,000.0,037.3,030.4,16.4,0000.0,0011.34,0003.75,0002.82
2023-10-06 09:11:00,SystemResetWarning,0837.9,5.00,000.00,028.8,027.2,000.0,037.3,030.4,16.4,0000.0,0011.65,0003.80,0002.87
2023-10-06 09:12:00,SystemResetWarning,0837.8,5.01,000.00,028.8,027.2,000.0,037.3,030.4,16.4,0000.0,0012.09,0003.79,0002.92
2023-10-06 09:13:00,SystemResetWarning,0837.9,5.00,000.00,028.8,027.2,000.0,037.3,030.4,16.4,0000.0,0012.68,0003.82,0002.98
2023-10-06 09:14:00,SystemResetWarning,0838.0,5.00,000.00,028.8,027.2,000.0,037.3,030.4,16.4,0000.0,0013.25,0003.82,0003.03
2023-10-06 09:15:00,SystemResetWarning,0838.0,4.99,000.00,028.8,027.2,000.0,037.3,030.4,16.5,0000.0,0013.17,0003.85,0003.07
2023-10-06 09:16:00,SystemResetWarning,0838.0,4.99,000.00,028.8,027.2,000.0,037.3,030.4,16.5,0000.0,0013.16,0003.89,0003.11
2023-10-06 09:17:00,SystemResetWarning,0838.0,5.01,000.00,028.8,027.2,000.0,037.3,030.4,16.5,0000.0,0013.66,0003.90,0003.14
2023-10-06 09:18:00,SystemResetWarning,0838.0,5.01,000.00,028.8,027.2,000.0,037.2,030.4,16.5,0000.0,0013.52,0003.91,0003.17
2023-10-06 09:19:00,SystemResetWarning,0838.0,5.01,000.00,028.8,027.2,000.0,037.2,030.4,16.5,0000.0,0012.80,0003.90,0003.18
2023-10-06 09:20:00,SystemResetWarning,0838.1,4.99,000.00,028.8,027.2,000.0,037.2,030.4,16.5,0000.0,0012.39,0003.92,0003.19
2023-10-06 09:21:00,SystemResetWarning,0838.1,4.99,000.00,028.8,027.3,000.0,037.2,030.4,16.5,0000.0,0012.74,0003.90,0003.19
2023-10-06 09:22:00,SystemResetWarning,0838.1,5.00,000.00,028.8,027.3,000.0,037.2,030.4,16.5,0000.0,0012.22,0003.88,0003.20
2023-10-06 09:23:00,SystemResetWarning,0838.2,5.01,000.00,028.8,027.3,000.0,037.2,030.4,16.5,0000.0,0012.70,0003.90,0003.21
2023-10-06 09:24:00,SystemResetWarning,0838.2,5.01,000.00,028.8,027.3,000.0,037.2,030.5,16.5,0000.0,0012.51,0003.90,0003.20
2023-10-06 09:25:00,SystemResetWarning,0838.2,5.00,000.00,028.8,027.3,000.0,037.2,030.5,16.5,0000.0,0012.06,0003.92,0003.19
2023-10-06 09:26:00,SystemResetWarning,0838.2,5.00,000.00,028.8,027.3,000.0,037.2,030.5,16.4,0000.0,0011.81,0003.91,0003.19
2023-10-06 09:27:00,SystemResetWarning,0838.2,5.00,000.00,028.8,027.3,000.0,037.2,030.5,16.4,0000.0,0011.65,0003.91,0003.18
2023-10-06 09:28:00,SystemResetWarning,0838.2,5.00,000.00,028.8,027.3,000.0,037.2,030.4,16.4,0000.0,0011.07,0003.93,0003.17
2023-10-06 09:29:00,SystemResetWarning,0838.2,5.00,000.00,028.8,027.3,000.0,037.2,030.4,16.4,0000.0,0011.09,0003.92,0003.15
2023-10-06 09:30:00,SystemResetWarning,0838.1,4.99,000.00,028.8,027.3,000.0,037.2,030.4,16.4,0000.0,0011.94,0003.92,0003.14
2023-10-06 09:31:00,SystemResetWarning,0838.1,5.00,000.00,028.8,027.2,000.0,037.2,030.4,16.5,0000.0,0012.90,0003.90,0003.13
2023-10-06 09:32:00,SystemResetWarning,0838.2,5.00,000.00,028.8,027.2,000.0,037.2,030.4,16.5,0000.0,0012.89,0003.91,0003.11
2023-10-06 09:33:00,SystemResetWarning,0838.1,5.00,000.00,028.8,027.2,000.0,037.2,030.4,16.5,0000.0,0012.77,0003.98,0003.10
2023-10-06 09:34:00,SystemResetWarning,0838.1,5.00,000.00,028.8,027.2,000.0,037.2,030.4,16.5,0000.0,0012.56,0003.98,0003.07
2023-10-06 09:35:00,SystemResetWarning,0838.2,5.00,000.00,028.8,027.2,000.0,037.2,030.4,16.5,0000.0,0011.75,0004.01,0003.07
2023-10-06 09:36:00,SystemResetWarning,0838.2,5.01,000.00,028.8,027.2,000.0,037.2,030.4,16.5,0000.0,0011.75,0004.03,0003.07
2023-10-06 09:37:00,SystemResetWarning,0838.2,5.01,000.00,028.8,027.2,000.0,037.2,030.4,16.5,0000.0,0012.08,0004.08,0003.09
2023-10-06 09:38:00,SystemResetWarning,0838.2,5.00,000.00,028.8,027.2,000.0,037.2,030.4,16.5,0000.0,0012.27,0004.09,0003.09
2023-10-06 09:39:00,SystemResetWarning,0838.3,5.00,000.00,028.8,027.2,000.0,037.2,030.4,16.5,0000.0,0012.40,0004.08,0003.07
2023-10-06 09:40:00,SystemResetWarning,0838.3,5.00,000.00,028.8,027.2,000.0,037.2,030.3,16.5,0000.0,0012.52,0004.06,0003.05
2023-10-06 09:41:00,SystemResetWarning,0838.2,4.99,000.00,028.7,027.2,000.0,037.2,030.3,16.5,0000.0,0012.39,0004.07,0003.05
2023-10-06 09:42:00,SystemResetWarning,0838.2,5.00,000.00,028.7,027.2,000.0,037.2,030.4,16.4,0000.0,0010.88,0004.10,0003.06
2023-10-06 09:43:00,SystemResetWarning,0838.3,4.99,000.00,028.7,027.2,000.0,037.2,030.3,16.4,0000.0,0010.61,0004.08,0003.04
2023-10-06 09:44:00,SystemResetWarning,0838.3,5.00,000.00,028.7,027.2,000.0,037.2,030.3,16.4,0000.0,0011.03,0003.99,0003.04
2023-10-06 09:45:00,SystemResetWarning,0838.3,5.00,000.00,028.7,027.2,000.0,037.2,030.4,16.4,0000.0,0011.03,0003.97,0003.04
2023-10-06 09:46:00,SystemResetWarning,0838.3,5.00,000.00,028.7,027.2,000.0,037.2,030.4,16.4,0000.0,0010.94,0003.94,0003.03
2023-10-06 09:47:00,SystemResetWarning,0838.4,5.00,000.00,028.7,027.2,000.0,037.2,030.4,16.4,0000.0,0010.92,0003.94,0003.01
2023-10-06 09:48:00,SystemResetWarning,0838.3,5.00,000.00,028.7,027.2,000.0,037.2,030.4,16.5,0000.0,0010.88,0003.94,0002.97
2023-10-06 09:49:00,SystemResetWarning,0838.3,5.00,000.00,028.7,027.2,000.0,037.2,030.3,16.5,0000.0,0010.80,0003.94,0002.94
2023-10-06 09:50:00,SystemResetWarning,0838.3,4.99,000.00,028.7,027.2,000.0,037.2,030.3,16.5,0000.0,0010.95,0003.92,0002.92
2023-10-06 09:51:00,SystemResetWarning,0838.4,5.00,000.00,028.7,027.1,000.0,037.2,030.3,16.6,0000.0,0011.79,0003.96,0002.93
2023-10-06 09:52:00,SystemResetWarning,0838.3,5.00,000.00,028.7,027.1,000.0,037.2,030.2,16.7,0000.0,0012.98,0003.98,0002.92
2023-10-06 09:53:00,SystemResetWarning,0838.4,5.00,000.00,028.7,027.1,000.0,037.1,030.2,16.8,0000.0,0013.17,0003.94,0002.91
2023-10-06 09:54:00,SystemResetWarning,0838.4,5.00,000.00,028.7,027.1,000.0,037.1,030.2,16.8,0000.0,0013.61,0003.94,0002.91
2023-10-06 09:55:00,SystemResetWarning,0838.4,5.00,000.00,028.7,027.1,000.0,037.1,030.2,17.0,0000.0,0013.32,0003.96,0002.89
2023-10-06 09:56:00,SystemResetWarning,0838.3,4.99,000.00,028.6,027.1,000.0,037.1,030.2,17.0,0000.0,0012.92,0003.97,0002.88
2023-10-06 09:57:00,SystemResetWarning,0838.4,4.99,000.00,028.6,027.0,000.0,037.1,030.2,17.1,0000.0,0013.12,0003.98,0002.87
2023-10-06 09:58:00,SystemResetWarning,0838.5,5.00,000.00,028.6,027.0,000.0,037.1,030.2,17.1,0000.0,0013.68,0003.93,0002.86
2023-10-06 09:59:00,SystemResetWarning,0838.6,5.01,000.00,028.6,027.0,000.0,037.1,030.1,17.1,0000.0,0013.50,0003.89,0002.85
